Location: Zagreb
(45.8000°N, 16.0000°E)
Time: 20:57:42
(UTC+01:00)

CUTE-I - Pass Details

Date: 07 November 2020
Orbit: 811 x 824 km, 98.7° (Epoch: 01 December)

Event Time Altitude Azimuth Distance (km) Brightness Sun altitude
Rises 05:40:53 0° 21° (NNE) 3,361 ? -11.5°
Reaches altitude 10° 05:43:26 10° 30° (NNE) 2,426 ? -11.0°
Maximum altitude 05:48:22 36° 97° (E) 1,273 ? -10.2°
Drops below altitude 10° 05:53:17 10° 163° (SSE) 2,415 ? -9.4°
Sets 05:55:48 0° 172° (S) 3,344 ? -9.0°
